This is the latest recevied weather packets stored in our database for station/object WMKL. If no packets are shown the sender has not sent any weather packets the latest 10 day(s).
| Time | Temp. | Humidity | Pressure | Rain* | Wind** | Luminosity | Snow |
|---|---|---|---|---|---|---|---|
| 1777615845 | 33.89° C | 46% | 1009 hPa | - | - | - | - |
| 1777612259 | 33.89° C | 52% | 1010 hPa | - | - | - | - |
| 1777608639 | 32.78° C | 59% | 1011 hPa | - | - | - | - |
| 1777605039 | 32.78° C | 55% | 1011 hPa | - | - | - | - |
| 1777583458 | 26.67° C | 83% | 1007 hPa | - | - | - | - |
| 1777579839 | 27.78° C | 78% | 1008 hPa | - | - | - | - |
| 1777572640 | 28.89° C | 79% | 1010 hPa | - | - | - | - |
| 1777569057 | 28.89° C | 79% | 1010 hPa | - | - | - | - |
| 1777565438 | 28.89° C | 79% | 1011 hPa | - | - | - | - |
| 1777558238 | 30° C | 74% | 1009 hPa | - | - | - | - |
| 1777554656 | 30° C | 74% | 1008 hPa | - | - | - | - |
| 1777543837 | 31.67° C | 66% | 1006 hPa | - | - | - | - |
| 1777540256 | 32.78° C | 66% | 1006 hPa | - | - | - | - |
| 1777536637 | 32.78° C | 62% | 1007 hPa | - | - | - | - |
| 1777533035 | 32.78° C | 62% | 1008 hPa | - | - | - | - |
| 1777529437 | 32.78° C | 62% | 1009 hPa | - | - | - | - |
| 1777525856 | 32.78° C | 66% | 1010 hPa | - | - | - | - |
| 1777522233 | 31.67° C | 66% | 1010 hPa | - | - | - | - |
| 1777518637 | 31.67° C | 62% | 1010 hPa | - | - | - | - |
| 1777515037 | 30° C | 74% | 1010 hPa | - | - | - | - |
| 1777511437 | 27.78° C | 78% | 1010 hPa | - | - | - | - |
| 1777507863 | 26.67° C | 83% | 1008 hPa | - | - | - | - |
| 1777493461 | 26.67° C | 88% | 1008 hPa | - | - | - | - |
| 1777479041 | 26.67° C | 88% | 1010 hPa | - | - | - | - |
| 1777468236 | 26.67° C | 88% | 1009 hPa | - | - | - | - |
* Rain since midnight (hover to see other rain measurements)
** Current wind speed in m/s (hover to see current wind gust speed)